Hlavní strana
METAR-TAF:

METAR-TAF

Letiště :

Crawfordsville, Indiana, Spojené státy americké

zeměpisná šířka: 39-58-34N, zeměpisná délka: 086-55-09W, výška: 244 m

Aktuální stav počasí

Zpráva byla vytvořena před 20 minutami, v 00:55 UTC
Bezvětří
Teplota 5°C
Vlhkost vzduchu 87%
Tlak 1017 hPa
Viditelnost: 16.1 km
Jasno

METAR: KCFJ 180055Z AUTO 00000KT 10SM CLR 05/03 A3002 RMK AO2 T00450031

Čas: 21:15 (01:15 UTC)


TAF: chybějící

Stav a předpovědi počasí z více než 4 000 letišť (zprávy METAR a TAF).

Červené a žluté tečky na mapě představují dostupné meteorologické stanice.

Když kurzor umístíte na tečku, zobrazí se název stanice.

Pak kliknutím zobrazíte stav a předpověď počasí.

Chcete-li změnit mapu, kliknutím na zelené tlačítko se znaménkem +mapu přiblížíte, kliknutím na zelené tlačítko se znaménkem – mapu oddálíte a kliknutím na zelené šipky přejdete na sousední mapy.


METAR-TAF: